TimeMST,TemperatureF,Dew PointF,Humidity,Sea Level PressureIn,VisibilityMPH,Wind Direction,Wind SpeedMPH,Gust SpeedMPH,PrecipitationIn,Events,Conditions,WindDirDegrees,DateUTC
12:53 AM,48.0,28.0,46,29.92,10.0,SSE,5.8,-,N/A,,Clear,160,2012-12-09 07:53:00
1:53 AM,46.0,28.0,50,29.93,10.0,SSE,4.6,-,N/A,,Clear,150,2012-12-09 08:53:00
2:53 AM,46.0,27.0,47,29.93,10.0,SE,6.9,-,N/A,,Clear,140,2012-12-09 09:53:00
3:53 AM,46.0,27.0,47,29.93,10.0,SE,8.1,-,N/A,,Clear,140,2012-12-09 10:53:00
4:53 AM,45.0,27.0,49,29.93,10.0,SE,8.1,-,N/A,,Clear,140,2012-12-09 11:53:00
5:53 AM,44.1,27.0,51,29.94,10.0,SSE,8.1,-,N/A,,Clear,150,2012-12-09 12:53:00
6:53 AM,44.1,27.0,51,29.96,10.0,SE,8.1,-,N/A,,Clear,140,2012-12-09 13:53:00
7:53 AM,44.1,28.0,53,29.98,-9999.0,SE,5.8,-,N/A,,Clear,140,2012-12-09 14:53:00
8:53 AM,48.9,28.9,46,29.99,10.0,SSE,3.5,-,N/A,,Clear,160,2012-12-09 15:53:00
9:53 AM,55.0,30.0,38,30.00,10.0,Calm,Calm,-,N/A,,Clear,0,2012-12-09 16:53:00
10:53 AM,61.0,30.9,32,30.00,-9999.0,Variable,3.5,-,N/A,,Clear,0,2012-12-09 17:53:00
11:53 AM,64.9,21.9,19,29.97,10.0,WNW,8.1,-,N/A,,Clear,290,2012-12-09 18:53:00
12:53 PM,68.0,21.0,17,29.94,10.0,West,10.4,-,N/A,,Clear,270,2012-12-09 19:53:00
1:53 PM,69.1,18.0,14,29.93,10.0,WNW,9.2,19.6,N/A,,Clear,290,2012-12-09 20:53:00
2:53 PM,69.1,16.0,13,29.92,10.0,West,10.4,-,N/A,,Clear,280,2012-12-09 21:53:00
3:53 PM,69.1,15.1,13,29.93,10.0,NW,15.0,-,N/A,,Clear,320,2012-12-09 22:53:00
4:53 PM,66.9,17.1,15,29.94,10.0,WNW,13.8,-,N/A,,Clear,290,2012-12-09 23:53:00
5:53 PM,63.0,18.0,18,29.97,10.0,West,6.9,-,N/A,,Clear,280,2012-12-10 00:53:00
6:53 PM,61.0,21.0,21,30.00,10.0,NNW,9.2,-,N/A,,Clear,340,2012-12-10 01:53:00
7:53 PM,57.9,21.0,24,30.01,10.0,West,5.8,-,N/A,,Clear,260,2012-12-10 02:53:00
8:53 PM,55.9,21.0,26,30.03,-9999.0,WNW,3.5,-,N/A,,Clear,290,2012-12-10 03:53:00
9:00 PM,53.6,21.2,28,30.08,10.0,WSW,5.8,-,N/A,,Clear,240,2012-12-10 04:00:00
9:53 PM,52.0,21.9,31,30.04,10.0,WSW,3.5,-,N/A,,Clear,250,2012-12-10 04:53:00
10:53 PM,48.9,21.0,33,30.05,10.0,Calm,Calm,-,N/A,,Clear,0,2012-12-10 05:53:00
11:53 PM,48.0,19.9,33,30.06,10.0,East,4.6,-,N/A,,Clear,90,2012-12-10 06:53:00